Date_Time,Julian_Date,Latitude,Longitude,Instrument_Depth,U,V,Speed,Direction
(yyyy-mm-dd hh:mn:ss UTC),(JD),(+ deg. North),(+ deg. East),(m),(cm/s),(cm/s),(cm/s),(deg True)
1983-04-25 18:00:00 UTC,2445450.250000,28.7317,-95.2428,0036,-1.55,4.76,5.0000,342.0000
1983-04-25 18:30:00 UTC,2445450.270833,28.7317,-95.2428,0036,-2.12,3.39,4.0000,328.0000
1983-04-25 19:00:00 UTC,2445450.291667,28.7317,-95.2428,0036,-2.70,1.32,3.0000,296.0000
1983-04-25 19:30:00 UTC,2445450.312500,28.7317,-95.2428,0036,-2.57,-1.55,3.0000,239.0000
1983-04-25 20:00:00 UTC,2445450.333333,28.7317,-95.2428,0036,-3.47,-3.60,5.0000,224.0000
1983-04-25 20:30:00 UTC,2445450.354167,28.7317,-95.2428,0036,-4.86,-5.04,7.0000,224.0000
1983-04-25 21:00:00 UTC,2445450.375000,28.7317,-95.2428,0036,-6.04,-5.25,8.0000,229.0000
1983-04-25 21:30:00 UTC,2445450.395833,28.7317,-95.2428,0036,-6.47,-6.25,9.0000,226.0000
1983-04-25 22:00:00 UTC,2445450.416667,28.7317,-95.2428,0036,-6.18,-10.29,12.0000,211.0000
1983-04-25 22:30:00 UTC,2445450.437500,28.7317,-95.2428,0036,-7.01,-14.38,16.0000,206.0000
1983-04-25 23:00:00 UTC,2445450.458333,28.7317,-95.2428,0036,-8.50,-14.72,17.0000,210.0000
1983-04-25 23:30:00 UTC,2445450.479167,28.7317,-95.2428,0036,-9.26,-14.26,17.0000,213.0000
1983-04-26 00:00:00 UTC,2445450.500000,28.7317,-95.2428,0036,-9.54,-15.26,18.0000,212.0000
1983-04-26 00:30:00 UTC,2445450.520833,28.7317,-95.2428,0036,-10.07,-16.11,19.0000,212.0000
1983-04-26 01:00:00 UTC,2445450.541667,28.7317,-95.2428,0036,-11.18,-16.58,20.0000,214.0000
1983-04-26 01:30:00 UTC,2445450.562500,28.7317,-95.2428,0036,-11.76,-16.18,20.0000,216.0000
1983-04-26 02:00:00 UTC,2445450.583333,28.7317,-95.2428,0036,-12.04,-15.97,20.0000,217.0000
1983-04-26 02:30:00 UTC,2445450.604167,28.7317,-95.2428,0036,-12.93,-16.55,21.0000,218.0000
1983-04-26 03:00:00 UTC,2445450.625000,28.7317,-95.2428,0036,-13.85,-17.10,22.0000,219.0000
1983-04-26 03:30:00 UTC,2445450.645833,28.7317,-95.2428,0036,-14.78,-17.62,23.0000,220.0000
1983-04-26 04:00:00 UTC,2445450.666667,28.7317,-95.2428,0036,-15.09,-17.36,23.0000,221.0000
1983-04-26 04:30:00 UTC,2445450.687500,28.7317,-95.2428,0036,-15.98,-16.54,23.0000,224.0000
1983-04-26 05:00:00 UTC,2445450.708333,28.7317,-95.2428,0036,-16.60,-14.43,22.0000,229.0000
1983-04-26 05:30:00 UTC,2445450.729167,28.7317,-95.2428,0036,-17.34,-13.54,22.0000,232.0000
1983-04-26 06:00:00 UTC,2445450.750000,28.7317,-95.2428,0036,-17.80,-12.93,22.0000,234.0000
1983-04-26 06:30:00 UTC,2445450.770833,28.7317,-95.2428,0036,-18.84,-13.19,23.0000,235.0000
1983-04-26 07:00:00 UTC,2445450.791667,28.7317,-95.2428,0036,-19.42,-14.11,24.0000,234.0000
1983-04-26 07:30:00 UTC,2445450.812500,28.7317,-95.2428,0036,-19.42,-14.11,24.0000,234.0000
1983-04-26 08:00:00 UTC,2445450.833333,28.7317,-95.2428,0036,-18.61,-13.52,23.0000,234.0000
1983-04-26 08:30:00 UTC,2445450.854167,28.7317,-95.2428,0036,-18.65,-15.10,24.0000,231.0000
1983-04-26 09:00:00 UTC,2445450.875000,28.7317,-95.2428,0036,-18.87,-16.40,25.0000,229.0000
1983-04-26 09:30:00 UTC,2445450.895833,28.7317,-95.2428,0036,-19.15,-16.07,25.0000,230.0000
1983-04-26 10:00:00 UTC,2445450.916667,28.7317,-95.2428,0036,-19.43,-15.73,25.0000,231.0000
1983-04-26 10:30:00 UTC,2445450.937500,28.7317,-95.2428,0036,-19.92,-16.71,26.0000,230.0000
1983-04-26 11:00:00 UTC,2445450.958333,28.7317,-95.2428,0036,-20.68,-17.36,27.0000,230.0000
1983-04-26 11:30:00 UTC,2445450.979167,28.7317,-95.2428,0036,-21.45,-18.00,28.0000,230.0000
1983-04-26 12:00:00 UTC,2445451.000000,28.7317,-95.2428,0036,-20.98,-16.99,27.0000,231.0000
1983-04-26 12:30:00 UTC,2445451.020833,28.7317,-95.2428,0036,-20.23,-14.69,25.0000,234.0000
1983-04-26 13:00:00 UTC,2445451.041667,28.7317,-95.2428,0036,-20.13,-13.07,24.0000,237.0000
1983-04-26 13:30:00 UTC,2445451.062500,28.7317,-95.2428,0036,-18.45,-11.98,22.0000,237.0000
1983-04-26 14:00:00 UTC,2445451.083333,28.7317,-95.2428,0036,-16.77,-12.64,21.0000,233.0000
1983-04-26 14:30:00 UTC,2445451.104167,28.7317,-95.2428,0036,-15.85,-13.78,21.0000,229.0000
1983-04-26 15:00:00 UTC,2445451.125000,28.7317,-95.2428,0036,-14.86,-13.38,20.0000,228.0000
1983-04-26 15:30:00 UTC,2445451.145833,28.7317,-95.2428,0036,-14.34,-12.47,19.0000,229.0000
1983-04-26 16:00:00 UTC,2445451.166667,28.7317,-95.2428,0036,-12.83,-11.15,17.0000,229.0000
1983-04-26 16:30:00 UTC,2445451.187500,28.7317,-95.2428,0036,-11.89,-10.71,16.0000,228.0000
1983-04-26 17:00:00 UTC,2445451.208333,28.7317,-95.2428,0036,-10.91,-11.70,16.0000,223.0000
1983-04-26 17:30:00 UTC,2445451.229167,28.7317,-95.2428,0036,-9.40,-12.94,16.0000,216.0000
1983-04-26 18:00:00 UTC,2445451.250000,28.7317,-95.2428,0036,-8.48,-13.57,16.0000,212.0000
1983-04-26 18:30:00 UTC,2445451.270833,28.7317,-95.2428,0036,-8.00,-13.86,16.0000,210.0000
1983-04-26 19:00:00 UTC,2445451.291667,28.7317,-95.2428,0036,-7.76,-13.99,16.0000,209.0000
1983-04-26 19:30:00 UTC,2445451.312500,28.7317,-95.2428,0036,-8.45,-15.89,18.0000,208.0000
1983-04-26 20:00:00 UTC,2445451.333333,28.7317,-95.2428,0036,-9.08,-17.82,20.0000,207.0000
1983-04-26 20:30:00 UTC,2445451.354167,28.7317,-95.2428,0036,-10.44,-20.49,23.0000,207.0000
1983-04-26 21:00:00 UTC,2445451.375000,28.7317,-95.2428,0036,-10.96,-22.47,25.0000,206.0000
1983-04-26 21:30:00 UTC,2445451.395833,28.7317,-95.2428,0036,-12.27,-25.17,28.0000,206.0000
1983-04-26 22:00:00 UTC,2445451.416667,28.7317,-95.2428,0036,-14.06,-25.36,29.0000,209.0000
1983-04-26 22:30:00 UTC,2445451.437500,28.7317,-95.2428,0036,-16.63,-23.76,29.0000,215.0000
1983-04-26 23:00:00 UTC,2445451.458333,28.7317,-95.2428,0036,-20.34,-23.40,31.0000,221.0000
1983-04-26 23:30:00 UTC,2445451.479167,28.7317,-95.2428,0036,-22.63,-22.63,32.0000,225.0000
1983-04-27 00:00:00 UTC,2445451.500000,28.7317,-95.2428,0036,-24.52,-22.08,33.0000,228.0000
1983-04-27 00:30:00 UTC,2445451.520833,28.7317,-95.2428,0036,-26.79,-20.93,34.0000,232.0000
1983-04-27 01:00:00 UTC,2445451.541667,28.7317,-95.2428,0036,-29.02,-19.57,35.0000,236.0000
1983-04-27 01:30:00 UTC,2445451.562500,28.7317,-95.2428,0036,-30.31,-17.50,35.0000,240.0000
1983-04-27 02:00:00 UTC,2445451.583333,28.7317,-95.2428,0036,-31.19,-15.89,35.0000,243.0000
1983-04-27 02:30:00 UTC,2445451.604167,28.7317,-95.2428,0036,-31.06,-13.83,34.0000,246.0000
1983-04-27 03:00:00 UTC,2445451.625000,28.7317,-95.2428,0036,-31.52,-12.74,34.0000,248.0000
1983-04-27 03:30:00 UTC,2445451.645833,28.7317,-95.2428,0036,-30.81,-11.83,33.0000,249.0000
1983-04-27 04:00:00 UTC,2445451.666667,28.7317,-95.2428,0036,-31.20,-10.74,33.0000,251.0000
1983-04-27 04:30:00 UTC,2445451.687500,28.7317,-95.2428,0036,-31.38,-10.20,33.0000,252.0000
1983-04-27 05:00:00 UTC,2445451.708333,28.7317,-95.2428,0036,-30.91,-8.28,32.0000,255.0000
1983-04-27 05:30:00 UTC,2445451.729167,28.7317,-95.2428,0036,-29.34,-6.24,30.0000,258.0000
1983-04-27 06:00:00 UTC,2445451.750000,28.7317,-95.2428,0036,-27.57,-4.86,28.0000,260.0000
1983-04-27 06:30:00 UTC,2445451.770833,28.7317,-95.2428,0036,-24.76,-3.48,25.0000,262.0000
1983-04-27 07:00:00 UTC,2445451.791667,28.7317,-95.2428,0036,-22.87,-2.40,23.0000,264.0000
1983-04-27 07:30:00 UTC,2445451.812500,28.7317,-95.2428,0036,-18.99,-0.66,19.0000,268.0000
1983-04-27 08:00:00 UTC,2445451.833333,28.7317,-95.2428,0036,-16.00,-0.00,16.0000,270.0000
1983-04-27 08:30:00 UTC,2445451.854167,28.7317,-95.2428,0036,-17.00,0.30,17.0000,271.0000
1983-04-27 09:00:00 UTC,2445451.875000,28.7317,-95.2428,0036,-17.96,1.26,18.0000,274.0000
1983-04-27 09:30:00 UTC,2445451.895833,28.7317,-95.2428,0036,-16.87,2.07,17.0000,277.0000
1983-04-27 10:00:00 UTC,2445451.916667,28.7317,-95.2428,0036,-14.82,2.35,15.0000,279.0000
1983-04-27 10:30:00 UTC,2445451.937500,28.7317,-95.2428,0036,-14.96,1.05,15.0000,274.0000
1983-04-27 11:00:00 UTC,2445451.958333,28.7317,-95.2428,0036,-16.96,-1.19,17.0000,266.0000
1983-04-27 11:30:00 UTC,2445451.979167,28.7317,-95.2428,0036,-19.75,-3.13,20.0000,261.0000
1983-04-27 12:00:00 UTC,2445452.000000,28.7317,-95.2428,0036,-21.35,-5.32,22.0000,256.0000
1983-04-27 12:30:00 UTC,2445452.020833,28.7317,-95.2428,0036,-22.55,-8.21,24.0000,250.0000
1983-04-27 13:00:00 UTC,2445452.041667,28.7317,-95.2428,0036,-23.37,-11.40,26.0000,244.0000
1983-04-27 13:30:00 UTC,2445452.062500,28.7317,-95.2428,0036,-21.03,-15.28,26.0000,234.0000
1983-04-27 14:00:00 UTC,2445452.083333,28.7317,-95.2428,0036,-19.42,-18.76,27.0000,226.0000
1983-04-27 14:30:00 UTC,2445452.104167,28.7317,-95.2428,0036,-18.74,-20.81,28.0000,222.0000
1983-04-27 15:00:00 UTC,2445452.125000,28.7317,-95.2428,0036,-17.85,-22.85,29.0000,218.0000
1983-04-27 15:30:00 UTC,2445452.145833,28.7317,-95.2428,0036,-18.22,-25.08,31.0000,216.0000
1983-04-27 16:00:00 UTC,2445452.166667,28.7317,-95.2428,0036,-18.93,-27.03,33.0000,215.0000
1983-04-27 16:30:00 UTC,2445452.187500,28.7317,-95.2428,0036,-19.57,-29.02,35.0000,214.0000
1983-04-27 17:00:00 UTC,2445452.208333,28.7317,-95.2428,0036,-20.70,-31.87,38.0000,213.0000
1983-04-27 17:30:00 UTC,2445452.229167,28.7317,-95.2428,0036,-22.94,-32.77,40.0000,215.0000
1983-04-27 18:00:00 UTC,2445452.250000,28.7317,-95.2428,0036,-25.28,-33.54,42.0000,217.0000
1983-04-27 18:30:00 UTC,2445452.270833,28.7317,-95.2428,0036,-25.86,-33.10,42.0000,218.0000
1983-04-27 19:00:00 UTC,2445452.291667,28.7317,-95.2428,0036,-28.21,-32.45,43.0000,221.0000
1983-04-27 19:30:00 UTC,2445452.312500,28.7317,-95.2428,0036,-30.41,-30.41,43.0000,225.0000
1983-04-27 20:00:00 UTC,2445452.333333,28.7317,-95.2428,0036,-31.21,-28.10,42.0000,228.0000
1983-04-27 20:30:00 UTC,2445452.354167,28.7317,-95.2428,0036,-28.28,-28.28,40.0000,225.0000
1983-04-27 21:00:00 UTC,2445452.375000,28.7317,-95.2428,0036,-22.92,-31.55,39.0000,216.0000
1983-04-27 21:30:00 UTC,2445452.395833,28.7317,-95.2428,0036,-20.36,-36.73,42.0000,209.0000
1983-04-27 22:00:00 UTC,2445452.416667,28.7317,-95.2428,0036,-18.85,-38.65,43.0000,206.0000
1983-04-27 22:30:00 UTC,2445452.437500,28.7317,-95.2428,0036,-18.16,-35.64,40.0000,207.0000
1983-04-27 23:00:00 UTC,2445452.458333,28.7317,-95.2428,0036,-22.94,-32.77,40.0000,215.0000
1983-04-27 23:30:00 UTC,2445452.479167,28.7317,-95.2428,0036,-30.11,-33.44,45.0000,222.0000
1983-04-28 00:00:00 UTC,2445452.500000,28.7317,-95.2428,0036,-36.98,-32.15,49.0000,229.0000
1983-04-28 00:30:00 UTC,2445452.520833,28.7317,-95.2428,0036,-40.45,-29.39,50.0000,234.0000
1983-04-28 01:00:00 UTC,2445452.541667,28.7317,-95.2428,0036,-41.14,-24.72,48.0000,239.0000
1983-04-28 01:30:00 UTC,2445452.562500,28.7317,-95.2428,0036,-41.11,-18.30,45.0000,246.0000
1983-04-28 02:00:00 UTC,2445452.583333,28.7317,-95.2428,0036,-40.66,-14.00,43.0000,251.0000
1983-04-28 02:30:00 UTC,2445452.604167,28.7317,-95.2428,0036,-41.33,-11.85,43.0000,254.0000
1983-04-28 03:00:00 UTC,2445452.625000,28.7317,-95.2428,0036,-43.19,-8.40,44.0000,259.0000
1983-04-28 03:30:00 UTC,2445452.645833,28.7317,-95.2428,0036,-48.93,-2.56,49.0000,267.0000
1983-04-28 04:00:00 UTC,2445452.666667,28.7317,-95.2428,0036,-53.99,-0.94,54.0000,269.0000
1983-04-28 04:30:00 UTC,2445452.687500,28.7317,-95.2428,0036,-51.61,-6.34,52.0000,263.0000
1983-04-28 05:00:00 UTC,2445452.708333,28.7317,-95.2428,0036,-49.08,-9.54,50.0000,259.0000
1983-04-28 05:30:00 UTC,2445452.729167,28.7317,-95.2428,0036,-47.27,-8.34,48.0000,260.0000
1983-04-28 06:00:00 UTC,2445452.750000,28.7317,-95.2428,0036,-44.32,-7.81,45.0000,260.0000
1983-04-28 06:30:00 UTC,2445452.770833,28.7317,-95.2428,0036,-39.39,-6.95,40.0000,260.0000
1983-04-28 07:00:00 UTC,2445452.791667,28.7317,-95.2428,0036,-35.56,-5.63,36.0000,261.0000
1983-04-28 07:30:00 UTC,2445452.812500,28.7317,-95.2428,0036,-30.70,-4.31,31.0000,262.0000
1983-04-28 08:00:00 UTC,2445452.833333,28.7317,-95.2428,0036,-26.50,-5.15,27.0000,259.0000
1983-04-28 08:30:00 UTC,2445452.854167,28.7317,-95.2428,0036,-23.07,-6.62,24.0000,254.0000
1983-04-28 09:00:00 UTC,2445452.875000,28.7317,-95.2428,0036,-21.61,-7.87,23.0000,250.0000
1983-04-28 09:30:00 UTC,2445452.895833,28.7317,-95.2428,0036,-21.17,-8.99,23.0000,247.0000
1983-04-28 10:00:00 UTC,2445452.916667,28.7317,-95.2428,0036,-20.49,-10.44,23.0000,243.0000
1983-04-28 10:30:00 UTC,2445452.937500,28.7317,-95.2428,0036,-18.54,-9.86,21.0000,242.0000
1983-04-28 11:00:00 UTC,2445452.958333,28.7317,-95.2428,0036,-17.49,-7.42,19.0000,247.0000
1983-04-28 11:30:00 UTC,2445452.979167,28.7317,-95.2428,0036,-20.19,-5.79,21.0000,254.0000
1983-04-28 12:00:00 UTC,2445453.000000,28.7317,-95.2428,0036,-24.03,-6.89,25.0000,254.0000
1983-04-28 12:30:00 UTC,2445453.020833,28.7317,-95.2428,0036,-27.42,-9.44,29.0000,251.0000
1983-04-28 13:00:00 UTC,2445453.041667,28.7317,-95.2428,0036,-28.51,-14.53,32.0000,243.0000
1983-04-28 13:30:00 UTC,2445453.062500,28.7317,-95.2428,0036,-28.37,-22.16,36.0000,232.0000
1983-04-28 14:00:00 UTC,2445453.083333,28.7317,-95.2428,0036,-27.79,-28.77,40.0000,224.0000
1983-04-28 14:30:00 UTC,2445453.104167,28.7317,-95.2428,0036,-26.90,-30.94,41.0000,221.0000
1983-04-28 15:00:00 UTC,2445453.125000,28.7317,-95.2428,0036,-24.63,-31.52,40.0000,218.0000
1983-04-28 15:30:00 UTC,2445453.145833,28.7317,-95.2428,0036,-21.80,-31.13,38.0000,215.0000
1983-04-28 16:00:00 UTC,2445453.166667,28.7317,-95.2428,0036,-19.61,-30.19,36.0000,213.0000
1983-04-28 16:30:00 UTC,2445453.187500,28.7317,-95.2428,0036,-19.08,-30.53,36.0000,212.0000
1983-04-28 17:00:00 UTC,2445453.208333,28.7317,-95.2428,0036,-18.91,-34.11,39.0000,209.0000
1983-04-28 17:30:00 UTC,2445453.229167,28.7317,-95.2428,0036,-19.07,-37.42,42.0000,207.0000
1983-04-28 18:00:00 UTC,2445453.250000,28.7317,-95.2428,0036,-22.79,-36.47,43.0000,212.0000
1983-04-28 18:30:00 UTC,2445453.270833,28.7317,-95.2428,0036,-28.95,-35.75,46.0000,219.0000
1983-04-28 19:00:00 UTC,2445453.291667,28.7317,-95.2428,0036,-32.12,-35.67,48.0000,222.0000
1983-04-28 19:30:00 UTC,2445453.312500,28.7317,-95.2428,0036,-32.79,-36.41,49.0000,222.0000
1983-04-28 20:00:00 UTC,2445453.333333,28.7317,-95.2428,0036,-32.12,-35.67,48.0000,222.0000
1983-04-28 20:30:00 UTC,2445453.354167,28.7317,-95.2428,0036,-30.18,-34.72,46.0000,221.0000
1983-04-28 21:00:00 UTC,2445453.375000,28.7317,-95.2428,0036,-30.01,-32.18,44.0000,223.0000
1983-04-28 21:30:00 UTC,2445453.395833,28.7317,-95.2428,0036,-35.75,-28.95,46.0000,231.0000
1983-04-28 22:00:00 UTC,2445453.416667,28.7317,-95.2428,0036,-45.03,-26.00,52.0000,240.0000
1983-04-28 22:30:00 UTC,2445453.437500,28.7317,-95.2428,0036,-51.16,-22.78,56.0000,246.0000
1983-04-28 23:00:00 UTC,2445453.458333,28.7317,-95.2428,0036,-52.85,-21.35,57.0000,248.0000
1983-04-28 23:30:00 UTC,2445453.479167,28.7317,-95.2428,0036,-51.66,-24.09,57.0000,245.0000
1983-04-29 00:00:00 UTC,2445453.500000,28.7317,-95.2428,0036,-51.10,-29.50,59.0000,240.0000
1983-04-29 00:30:00 UTC,2445453.520833,28.7317,-95.2428,0036,-49.74,-33.55,60.0000,236.0000
1983-04-29 01:00:00 UTC,2445453.541667,28.7317,-95.2428,0036,-48.54,-35.27,60.0000,234.0000
1983-04-29 01:30:00 UTC,2445453.562500,28.7317,-95.2428,0036,-48.72,-36.71,61.0000,233.0000
1983-04-29 02:00:00 UTC,2445453.583333,28.7317,-95.2428,0036,-49.64,-38.79,63.0000,232.0000
1983-04-29 02:30:00 UTC,2445453.604167,28.7317,-95.2428,0036,-49.03,-41.14,64.0000,230.0000
1983-04-29 03:00:00 UTC,2445453.625000,28.7317,-95.2428,0036,-48.30,-41.99,64.0000,229.0000
1983-04-29 03:30:00 UTC,2445453.645833,28.7317,-95.2428,0036,-48.26,-40.50,63.0000,230.0000
1983-04-29 04:00:00 UTC,2445453.666667,28.7317,-95.2428,0036,-49.52,-37.31,62.0000,233.0000
1983-04-29 04:30:00 UTC,2445453.687500,28.7317,-95.2428,0036,-48.54,-35.27,60.0000,234.0000
1983-04-29 05:00:00 UTC,2445453.708333,28.7317,-95.2428,0036,-49.15,-34.41,60.0000,235.0000
1983-04-29 05:30:00 UTC,2445453.729167,28.7317,-95.2428,0036,-51.16,-33.22,61.0000,237.0000
1983-04-29 06:00:00 UTC,2445453.750000,28.7317,-95.2428,0036,-52.48,-29.09,60.0000,241.0000
1983-04-29 06:30:00 UTC,2445453.770833,28.7317,-95.2428,0036,-50.33,-26.76,57.0000,242.0000
1983-04-29 07:00:00 UTC,2445453.791667,28.7317,-95.2428,0036,-46.80,-24.88,53.0000,242.0000
1983-04-29 07:30:00 UTC,2445453.812500,28.7317,-95.2428,0036,-45.91,-24.41,52.0000,242.0000
1983-04-29 08:00:00 UTC,2445453.833333,28.7317,-95.2428,0036,-47.68,-25.35,54.0000,242.0000
1983-04-29 08:30:00 UTC,2445453.854167,28.7317,-95.2428,0036,-48.10,-26.66,55.0000,241.0000
1983-04-29 09:00:00 UTC,2445453.875000,28.7317,-95.2428,0036,-48.86,-29.36,57.0000,239.0000
1983-04-29 09:30:00 UTC,2445453.895833,28.7317,-95.2428,0036,-46.97,-30.50,56.0000,237.0000
1983-04-29 10:00:00 UTC,2445453.916667,28.7317,-95.2428,0036,-43.69,-31.74,54.0000,234.0000
1983-04-29 10:30:00 UTC,2445453.937500,28.7317,-95.2428,0036,-40.60,-34.07,53.0000,230.0000
1983-04-29 11:00:00 UTC,2445453.958333,28.7317,-95.2428,0036,-38.03,-35.46,52.0000,227.0000
1983-04-29 11:30:00 UTC,2445453.979167,28.7317,-95.2428,0036,-37.41,-36.12,52.0000,226.0000
1983-04-29 12:00:00 UTC,2445454.000000,28.7317,-95.2428,0036,-36.77,-36.77,52.0000,225.0000
1983-04-29 12:30:00 UTC,2445454.020833,28.7317,-95.2428,0036,-36.15,-38.76,53.0000,223.0000
1983-04-29 13:00:00 UTC,2445454.041667,28.7317,-95.2428,0036,-36.08,-41.51,55.0000,221.0000
1983-04-29 13:30:00 UTC,2445454.062500,28.7317,-95.2428,0036,-36.00,-42.90,56.0000,220.0000
1983-04-29 14:00:00 UTC,2445454.083333,28.7317,-95.2428,0036,-35.24,-43.52,56.0000,219.0000
1983-04-29 14:30:00 UTC,2445454.104167,28.7317,-95.2428,0036,-33.70,-44.72,56.0000,217.0000
1983-04-29 15:00:00 UTC,2445454.125000,28.7317,-95.2428,0036,-32.69,-46.69,57.0000,215.0000
1983-04-29 15:30:00 UTC,2445454.145833,28.7317,-95.2428,0036,-31.31,-46.43,56.0000,214.0000
1983-04-29 16:00:00 UTC,2445454.166667,28.7317,-95.2428,0036,-27.81,-46.29,54.0000,211.0000
1983-04-29 16:30:00 UTC,2445454.187500,28.7317,-95.2428,0036,-25.69,-46.35,53.0000,209.0000
1983-04-29 17:00:00 UTC,2445454.208333,28.7317,-95.2428,0036,-24.41,-45.91,52.0000,208.0000
1983-04-29 17:30:00 UTC,2445454.229167,28.7317,-95.2428,0036,-24.73,-44.61,51.0000,209.0000
1983-04-29 18:00:00 UTC,2445454.250000,28.7317,-95.2428,0036,-23.94,-45.03,51.0000,208.0000
1983-04-29 18:30:00 UTC,2445454.270833,28.7317,-95.2428,0036,-25.21,-45.48,52.0000,209.0000
1983-04-29 19:00:00 UTC,2445454.291667,28.7317,-95.2428,0036,-27.00,-46.77,54.0000,210.0000
1983-04-29 19:30:00 UTC,2445454.312500,28.7317,-95.2428,0036,-27.81,-46.29,54.0000,211.0000
1983-04-29 20:00:00 UTC,2445454.333333,28.7317,-95.2428,0036,-29.08,-43.11,52.0000,214.0000
1983-04-29 20:30:00 UTC,2445454.354167,28.7317,-95.2428,0036,-29.39,-40.45,50.0000,216.0000
1983-04-29 21:00:00 UTC,2445454.375000,28.7317,-95.2428,0036,-28.80,-39.64,49.0000,216.0000
1983-04-29 21:30:00 UTC,2445454.395833,28.7317,-95.2428,0036,-26.28,-38.96,47.0000,214.0000
1983-04-29 22:00:00 UTC,2445454.416667,28.7317,-95.2428,0036,-25.05,-38.58,46.0000,213.0000
1983-04-29 22:30:00 UTC,2445454.437500,28.7317,-95.2428,0036,-24.51,-37.74,45.0000,213.0000
1983-04-29 23:00:00 UTC,2445454.458333,28.7317,-95.2428,0036,-24.05,-35.65,43.0000,214.0000
1983-04-29 23:30:00 UTC,2445454.479167,28.7317,-95.2428,0036,-22.94,-32.77,40.0000,215.0000
1983-04-30 00:00:00 UTC,2445454.500000,28.7317,-95.2428,0036,-24.27,-27.92,37.0000,221.0000
1983-04-30 00:30:00 UTC,2445454.520833,28.7317,-95.2428,0036,-29.11,-24.43,38.0000,230.0000
1983-04-30 01:00:00 UTC,2445454.541667,28.7317,-95.2428,0036,-34.79,-25.27,43.0000,234.0000
1983-04-30 01:30:00 UTC,2445454.562500,28.7317,-95.2428,0036,-35.94,-27.08,45.0000,233.0000
1983-04-30 02:00:00 UTC,2445454.583333,28.7317,-95.2428,0036,-34.47,-28.93,45.0000,230.0000
1983-04-30 02:30:00 UTC,2445454.604167,28.7317,-95.2428,0036,-33.44,-30.11,45.0000,228.0000
1983-04-30 03:00:00 UTC,2445454.625000,28.7317,-95.2428,0036,-33.09,-31.95,46.0000,226.0000
1983-04-30 03:30:00 UTC,2445454.645833,28.7317,-95.2428,0036,-33.23,-33.23,47.0000,225.0000
1983-04-30 04:00:00 UTC,2445454.666667,28.7317,-95.2428,0036,-33.34,-34.53,48.0000,224.0000
1983-04-30 04:30:00 UTC,2445454.687500,28.7317,-95.2428,0036,-33.23,-33.23,47.0000,225.0000
1983-04-30 05:00:00 UTC,2445454.708333,28.7317,-95.2428,0036,-31.96,-28.77,43.0000,228.0000
1983-04-30 05:30:00 UTC,2445454.729167,28.7317,-95.2428,0036,-31.55,-22.92,39.0000,234.0000
1983-04-30 06:00:00 UTC,2445454.750000,28.7317,-95.2428,0036,-28.10,-13.10,31.0000,245.0000
1983-04-30 06:30:00 UTC,2445454.770833,28.7317,-95.2428,0036,-25.33,-5.85,26.0000,257.0000
1983-04-30 07:00:00 UTC,2445454.791667,28.7317,-95.2428,0036,-23.64,-4.17,24.0000,260.0000
1983-04-30 07:30:00 UTC,2445454.812500,28.7317,-95.2428,0036,-24.36,-5.62,25.0000,257.0000
1983-04-30 08:00:00 UTC,2445454.833333,28.7317,-95.2428,0036,-24.15,-6.47,25.0000,255.0000
1983-04-30 08:30:00 UTC,2445454.854167,28.7317,-95.2428,0036,-22.95,-7.02,24.0000,253.0000
1983-04-30 09:00:00 UTC,2445454.875000,28.7317,-95.2428,0036,-22.83,-7.42,24.0000,252.0000
1983-04-30 09:30:00 UTC,2445454.895833,28.7317,-95.2428,0036,-23.49,-8.55,25.0000,250.0000
1983-04-30 10:00:00 UTC,2445454.916667,28.7317,-95.2428,0036,-24.43,-8.89,26.0000,250.0000
1983-04-30 10:30:00 UTC,2445454.937500,28.7317,-95.2428,0036,-25.68,-8.34,27.0000,252.0000
1983-04-30 11:00:00 UTC,2445454.958333,28.7317,-95.2428,0036,-26.59,-4.69,27.0000,260.0000
1983-04-30 11:30:00 UTC,2445454.979167,28.7317,-95.2428,0036,-25.96,-1.36,26.0000,267.0000
1983-04-30 12:00:00 UTC,2445455.000000,28.7317,-95.2428,0036,-24.97,-1.31,25.0000,267.0000
1983-04-30 12:30:00 UTC,2445455.020833,28.7317,-95.2428,0036,-24.81,-3.05,25.0000,263.0000
1983-04-30 13:00:00 UTC,2445455.041667,28.7317,-95.2428,0036,-23.82,-2.92,24.0000,263.0000
1983-04-30 13:30:00 UTC,2445455.062500,28.7317,-95.2428,0036,-22.72,-3.60,23.0000,261.0000
1983-04-30 14:00:00 UTC,2445455.083333,28.7317,-95.2428,0036,-21.44,-4.95,22.0000,257.0000
1983-04-30 14:30:00 UTC,2445455.104167,28.7317,-95.2428,0036,-21.52,-4.57,22.0000,258.0000
1983-04-30 15:00:00 UTC,2445455.125000,28.7317,-95.2428,0036,-22.50,-4.78,23.0000,258.0000
1983-04-30 15:30:00 UTC,2445455.145833,28.7317,-95.2428,0036,-24.26,-6.05,25.0000,256.0000
1983-04-30 16:00:00 UTC,2445455.166667,28.7317,-95.2428,0036,-26.31,-6.07,27.0000,257.0000
1983-04-30 16:30:00 UTC,2445455.187500,28.7317,-95.2428,0036,-25.53,-8.79,27.0000,251.0000
1983-04-30 17:00:00 UTC,2445455.208333,28.7317,-95.2428,0036,-24.87,-16.78,30.0000,236.0000
1983-04-30 17:30:00 UTC,2445455.229167,28.7317,-95.2428,0036,-28.75,-23.28,37.0000,231.0000
1983-04-30 18:00:00 UTC,2445455.250000,28.7317,-95.2428,0036,-33.43,-20.09,39.0000,239.0000
1983-04-30 18:30:00 UTC,2445455.270833,28.7317,-95.2428,0036,-38.53,-14.02,41.0000,250.0000
1983-04-30 19:00:00 UTC,2445455.291667,28.7317,-95.2428,0036,-44.63,-11.13,46.0000,256.0000
1983-04-30 19:30:00 UTC,2445455.312500,28.7317,-95.2428,0036,-45.80,-10.57,47.0000,257.0000
1983-04-30 20:00:00 UTC,2445455.333333,28.7317,-95.2428,0036,-44.02,-9.36,45.0000,258.0000
1983-04-30 20:30:00 UTC,2445455.354167,28.7317,-95.2428,0036,-41.23,-8.01,42.0000,259.0000
1983-04-30 21:00:00 UTC,2445455.375000,28.7317,-95.2428,0036,-40.25,-7.82,41.0000,259.0000
1983-04-30 21:30:00 UTC,2445455.395833,28.7317,-95.2428,0036,-38.81,-9.68,40.0000,256.0000
1983-04-30 22:00:00 UTC,2445455.416667,28.7317,-95.2428,0036,-38.25,-11.69,40.0000,253.0000
1983-04-30 22:30:00 UTC,2445455.437500,28.7317,-95.2428,0036,-38.77,-13.35,41.0000,251.0000
1983-04-30 23:00:00 UTC,2445455.458333,28.7317,-95.2428,0036,-39.47,-14.36,42.0000,250.0000
1983-04-30 23:30:00 UTC,2445455.479167,28.7317,-95.2428,0036,-38.94,-15.73,42.0000,248.0000
1983-05-01 00:00:00 UTC,2445455.500000,28.7317,-95.2428,0036,-38.31,-19.52,43.0000,243.0000
1983-05-01 00:30:00 UTC,2445455.520833,28.7317,-95.2428,0036,-38.57,-23.18,45.0000,239.0000
1983-05-01 01:00:00 UTC,2445455.541667,28.7317,-95.2428,0036,-38.83,-28.21,48.0000,234.0000
1983-05-01 01:30:00 UTC,2445455.562500,28.7317,-95.2428,0036,-38.30,-32.14,50.0000,230.0000
1983-05-01 02:00:00 UTC,2445455.583333,28.7317,-95.2428,0036,-34.65,-34.65,49.0000,225.0000
1983-05-01 02:30:00 UTC,2445455.604167,28.7317,-95.2428,0036,-30.18,-34.72,46.0000,221.0000
1983-05-01 03:00:00 UTC,2445455.625000,28.7317,-95.2428,0036,-26.43,-32.64,42.0000,219.0000
1983-05-01 03:30:00 UTC,2445455.645833,28.7317,-95.2428,0036,-24.67,-32.74,41.0000,217.0000